Time,TemperatureF,DewpointF,PressureIn,WindDirection,WindDirectionDegrees,WindSpeedMPH,WindSpeedGustMPH,Humidity,HourlyPrecipIn,Conditions,Clouds,dailyrainin,SoftwareType,DateUTC
2013-01-18 00:03:00,54.0,48.0,30.10,West,279,1.0,6.0,80,0.00,,,0.00,,2013-01-18 05:03:00,
2013-01-18 00:12:00,54.0,48.0,30.10,West,279,1.0,6.0,80,0.00,,,0.00,,2013-01-18 05:12:00,
2013-01-18 00:22:00,54.0,48.0,30.10,WNW,282,1.0,4.0,80,0.00,,,0.00,,2013-01-18 05:22:00,
2013-01-18 00:33:00,54.0,48.0,30.10,WNW,283,0.0,3.0,80,0.00,,,0.00,,2013-01-18 05:33:00,
2013-01-18 00:42:00,54.0,48.0,30.10,WNW,283,0.0,3.0,80,0.00,,,0.00,,2013-01-18 05:42:00,
2013-01-18 00:53:00,54.0,48.0,30.11,WNW,285,0.0,2.0,81,0.00,,,0.00,,2013-01-18 05:53:00,
2013-01-18 01:02:00,54.0,48.0,30.11,WNW,283,1.0,5.0,81,0.00,,,0.00,,2013-01-18 06:02:00,
2013-01-18 01:12:00,54.0,48.0,30.11,WNW,283,1.0,5.0,81,0.00,,,0.00,,2013-01-18 06:12:00,
2013-01-18 01:22:00,53.0,48.0,30.11,WNW,282,0.0,3.0,82,0.00,,,0.00,,2013-01-18 06:22:00,
2013-01-18 01:33:00,53.0,47.0,30.12,WNW,285,1.0,5.0,81,0.00,,,0.00,,2013-01-18 06:33:00,
2013-01-18 01:43:00,53.0,47.0,30.12,WNW,285,1.0,5.0,81,0.00,,,0.00,,2013-01-18 06:43:00,
2013-01-18 01:52:00,53.0,47.0,30.12,WNW,298,1.0,3.0,81,0.00,,,0.00,,2013-01-18 06:52:00,
2013-01-18 02:02:00,52.0,46.0,30.13,WNW,295,0.0,4.0,81,0.00,,,0.00,,2013-01-18 07:02:00,
2013-01-18 02:12:00,52.0,46.0,30.13,WNW,295,0.0,4.0,81,0.00,,,0.00,,2013-01-18 07:12:00,
2013-01-18 02:22:00,52.0,46.0,30.13,NW,307,1.0,4.0,80,0.00,,,0.00,,2013-01-18 07:22:00,
2013-01-18 02:32:00,51.0,45.0,30.14,WNW,291,1.0,7.0,81,0.00,,,0.00,,2013-01-18 07:32:00,
2013-01-18 02:42:00,51.0,45.0,30.14,WNW,291,1.0,7.0,81,0.00,,,0.00,,2013-01-18 07:42:00,
2013-01-18 02:52:00,51.0,45.0,30.14,WNW,287,1.0,4.0,81,0.00,,,0.00,,2013-01-18 07:52:00,
2013-01-18 03:02:00,51.0,45.0,30.14,NNW,339,1.0,5.0,81,0.00,,,0.00,,2013-01-18 08:02:00,
2013-01-18 03:12:00,51.0,45.0,30.14,NNW,339,1.0,5.0,81,0.00,,,0.00,,2013-01-18 08:12:00,
2013-01-18 03:22:00,50.0,44.0,30.15,NW,308,1.0,4.0,80,0.00,,,0.00,,2013-01-18 08:22:00,
2013-01-18 03:32:00,49.0,43.0,30.15,WNW,290,1.0,5.0,80,0.00,,,0.00,,2013-01-18 08:32:00,
2013-01-18 03:42:00,49.0,43.0,30.15,WNW,290,1.0,5.0,80,0.00,,,0.00,,2013-01-18 08:42:00,
2013-01-18 03:53:00,48.0,42.0,30.16,NW,326,0.0,3.0,81,0.00,,,0.00,,2013-01-18 08:53:00,
2013-01-18 04:02:00,48.0,43.0,30.16,NW,317,0.0,2.0,82,0.00,,,0.00,,2013-01-18 09:02:00,
2013-01-18 04:12:00,48.0,43.0,30.16,NW,317,0.0,2.0,82,0.00,,,0.00,,2013-01-18 09:12:00,
2013-01-18 04:22:00,47.0,41.0,30.17,NW,313,0.0,2.0,81,0.00,,,0.00,,2013-01-18 09:22:00,
2013-01-18 04:33:00,46.0,41.0,30.17,WNW,300,1.0,4.0,81,0.00,,,0.00,,2013-01-18 09:33:00,
2013-01-18 04:42:00,46.0,41.0,30.17,WNW,300,1.0,4.0,81,0.00,,,0.00,,2013-01-18 09:42:00,
2013-01-18 04:53:00,45.0,40.0,30.18,NNW,332,0.0,5.0,82,0.00,,,0.00,,2013-01-18 09:53:00,
2013-01-18 05:03:00,45.0,40.0,30.18,WNW,290,0.0,4.0,82,0.00,,,0.00,,2013-01-18 10:03:00,
2013-01-18 05:12:00,45.0,40.0,30.18,WNW,290,0.0,4.0,82,0.00,,,0.00,,2013-01-18 10:12:00,
2013-01-18 05:22:00,45.0,40.0,30.19,NNW,340,0.0,4.0,81,0.00,,,0.00,,2013-01-18 10:22:00,
2013-01-18 05:32:00,44.0,39.0,30.19,NW,323,0.0,4.0,81,0.00,,,0.00,,2013-01-18 10:32:00,
2013-01-18 05:42:00,44.0,39.0,30.19,NW,323,0.0,4.0,81,0.00,,,0.00,,2013-01-18 10:42:00,
2013-01-18 05:53:00,44.0,39.0,30.19,North,352,0.0,1.0,82,0.00,,,0.00,,2013-01-18 10:53:00,
2013-01-18 06:02:00,44.0,39.0,30.19,WNW,296,0.0,2.0,83,0.00,,,0.00,,2013-01-18 11:02:00,
2013-01-18 06:12:00,44.0,39.0,30.19,WNW,296,0.0,2.0,83,0.00,,,0.00,,2013-01-18 11:12:00,
2013-01-18 06:23:00,44.0,39.0,30.20,North,2,1.0,5.0,81,0.00,,,0.00,,2013-01-18 11:23:00,
2013-01-18 06:32:00,44.0,39.0,30.21,NW,308,0.0,4.0,82,0.00,,,0.00,,2013-01-18 11:32:00,
2013-01-18 06:42:00,44.0,39.0,30.21,NW,308,0.0,4.0,82,0.00,,,0.00,,2013-01-18 11:42:00,
2013-01-18 06:53:00,44.0,39.0,30.22,NNW,337,0.0,5.0,81,0.00,,,0.00,,2013-01-18 11:53:00,
2013-01-18 07:03:00,44.0,39.0,30.22,North,8,0.0,1.0,82,0.00,,,0.00,,2013-01-18 12:03:00,
2013-01-18 07:12:00,44.0,39.0,30.22,North,8,0.0,1.0,82,0.00,,,0.00,,2013-01-18 12:12:00,
2013-01-18 07:23:00,43.0,38.0,30.23,WNW,299,0.0,2.0,82,0.00,,,0.00,,2013-01-18 12:23:00,
2013-01-18 07:33:00,43.0,38.0,30.23,WNW,293,0.0,2.0,82,0.00,,,0.00,,2013-01-18 12:33:00,
2013-01-18 07:43:00,43.0,38.0,30.23,WNW,293,0.0,2.0,82,0.00,,,0.00,,2013-01-18 12:43:00,
2013-01-18 07:53:00,43.0,38.0,30.24,WNW,284,0.0,2.0,82,0.00,,,0.00,,2013-01-18 12:53:00,
2013-01-18 08:03:00,44.0,39.0,30.24,West,277,0.0,1.0,82,0.00,,,0.00,,2013-01-18 13:03:00,
2013-01-18 08:12:00,44.0,39.0,30.24,West,277,0.0,1.0,82,0.00,,,0.00,,2013-01-18 13:12:00,
2013-01-18 08:23:00,44.0,39.0,30.24,WNW,283,0.0,2.0,82,0.00,,,0.00,,2013-01-18 13:23:00,
2013-01-18 08:33:00,45.0,40.0,30.25,WNW,287,0.0,3.0,82,0.00,,,0.00,,2013-01-18 13:33:00,
2013-01-18 08:43:00,45.0,40.0,30.25,WNW,287,0.0,3.0,82,0.00,,,0.00,,2013-01-18 13:43:00,
2013-01-18 08:53:00,45.0,40.0,30.25,WNW,285,1.0,6.0,82,0.00,,,0.00,,2013-01-18 13:53:00,
2013-01-18 09:03:00,46.0,40.0,30.26,WNW,287,1.0,5.0,80,0.00,,,0.00,,2013-01-18 14:03:00,
2013-01-18 09:12:00,46.0,40.0,30.26,WNW,287,1.0,5.0,80,0.00,,,0.00,,2013-01-18 14:12:00,
2013-01-18 09:23:00,47.0,41.0,30.26,WNW,284,1.0,5.0,80,0.00,,,0.00,,2013-01-18 14:23:00,
2013-01-18 09:34:00,48.0,42.0,30.26,NW,316,0.0,3.0,80,0.00,,,0.00,,2013-01-18 14:34:00,
2013-01-18 09:42:00,48.0,42.0,30.26,NW,316,0.0,3.0,80,0.00,,,0.00,,2013-01-18 14:42:00,
2013-01-18 09:53:00,50.0,43.0,30.27,NW,304,1.0,4.0,78,0.00,,,0.00,,2013-01-18 14:53:00,
2013-01-18 10:03:00,52.0,44.0,30.27,WNW,298,0.0,3.0,75,0.00,,,0.00,,2013-01-18 15:03:00,
2013-01-18 10:13:00,52.0,44.0,30.27,WNW,298,0.0,3.0,75,0.00,,,0.00,,2013-01-18 15:13:00,
2013-01-18 10:23:00,53.0,45.0,30.27,WNW,289,1.0,4.0,75,0.00,,,0.00,,2013-01-18 15:23:00,
2013-01-18 10:33:00,54.0,46.0,30.27,NW,318,0.0,4.0,74,0.00,,,0.00,,2013-01-18 15:33:00,
2013-01-18 10:43:00,54.0,46.0,30.27,NW,318,0.0,4.0,74,0.00,,,0.00,,2013-01-18 15:43:00,
2013-01-18 10:53:00,57.0,48.0,30.26,NNW,338,1.0,6.0,73,0.00,,,0.00,,2013-01-18 15:53:00,
2013-01-18 11:03:00,58.0,49.0,30.26,NNW,332,1.0,6.0,71,0.00,,,0.00,,2013-01-18 16:03:00,
2013-01-18 11:12:00,58.0,49.0,30.26,NNW,332,1.0,6.0,71,0.00,,,0.00,,2013-01-18 16:12:00,
2013-01-18 11:23:00,58.0,49.0,30.26,NNW,327,1.0,4.0,72,0.00,,,0.00,,2013-01-18 16:23:00,
2013-01-18 11:33:00,60.0,51.0,30.25,NNW,339,1.0,4.0,71,0.00,,,0.00,,2013-01-18 16:33:00,
2013-01-18 11:42:00,60.0,51.0,30.25,NNW,339,1.0,4.0,71,0.00,,,0.00,,2013-01-18 16:42:00,
2013-01-18 11:52:00,61.0,51.0,30.24,NNE,15,1.0,6.0,69,0.00,,,0.00,,2013-01-18 16:52:00,
2013-01-18 12:03:00,63.0,53.0,30.24,NNW,342,1.0,7.0,69,0.00,,,0.00,,2013-01-18 17:03:00,
2013-01-18 12:13:00,63.0,53.0,30.24,NNW,342,1.0,7.0,69,0.00,,,0.00,,2013-01-18 17:13:00,
2013-01-18 12:23:00,64.0,53.0,30.24,North,1,1.0,6.0,67,0.00,,,0.00,,2013-01-18 17:23:00,
2013-01-18 12:34:00,64.0,53.0,30.23,NNE,29,1.0,3.0,67,0.00,,,0.00,,2013-01-18 17:34:00,
2013-01-18 12:43:00,64.0,53.0,30.23,NNE,29,1.0,3.0,67,0.00,,,0.00,,2013-01-18 17:43:00,
2013-01-18 12:53:00,64.0,53.0,30.23,North,355,1.0,7.0,68,0.00,,,0.00,,2013-01-18 17:53:00,
2013-01-18 13:03:00,64.0,54.0,30.23,NNW,339,0.0,3.0,69,0.00,,,0.00,,2013-01-18 18:03:00,
2013-01-18 13:13:00,64.0,54.0,30.23,NNW,339,0.0,3.0,69,0.00,,,0.00,,2013-01-18 18:13:00,
2013-01-18 13:23:00,65.0,55.0,30.22,NNW,334,1.0,4.0,70,0.00,,,0.00,,2013-01-18 18:23:00,
2013-01-18 13:33:00,68.0,58.0,30.21,NNE,32,1.0,4.0,70,0.00,,,0.00,,2013-01-18 18:33:00,
2013-01-18 13:43:00,68.0,58.0,30.21,NNE,32,1.0,4.0,70,0.00,,,0.00,,2013-01-18 18:43:00,
2013-01-18 13:53:00,69.0,58.0,30.20,East,85,1.0,5.0,67,0.00,,,0.00,,2013-01-18 18:53:00,
2013-01-18 14:03:00,69.0,58.0,30.20,NE,42,1.0,5.0,67,0.00,,,0.00,,2013-01-18 19:03:00,
2013-01-18 14:13:00,69.0,58.0,30.20,NE,42,1.0,5.0,67,0.00,,,0.00,,2013-01-18 19:13:00,
2013-01-18 14:23:00,71.0,58.0,30.20,NE,45,1.0,6.0,64,0.00,,,0.00,,2013-01-18 19:23:00,
2013-01-18 14:33:00,70.0,59.0,30.20,NE,56,2.0,7.0,67,0.00,,,0.00,,2013-01-18 19:33:00,
2013-01-18 14:43:00,70.0,59.0,30.20,NE,56,2.0,7.0,67,0.00,,,0.00,,2013-01-18 19:43:00,
2013-01-18 14:52:00,70.0,59.0,30.20,NNE,28,2.0,8.0,67,0.00,,,0.00,,2013-01-18 19:52:00,
2013-01-18 15:03:00,71.0,59.0,30.20,NE,45,1.0,3.0,65,0.00,,,0.00,,2013-01-18 20:03:00,
2013-01-18 15:13:00,71.0,59.0,30.20,NE,45,1.0,3.0,65,0.00,,,0.00,,2013-01-18 20:13:00,
2013-01-18 15:23:00,69.0,58.0,30.20,NNE,23,2.0,6.0,67,0.00,,,0.00,,2013-01-18 20:23:00,
2013-01-18 15:33:00,68.0,58.0,30.20,NNE,19,1.0,6.0,70,0.00,,,0.00,,2013-01-18 20:33:00,
2013-01-18 15:43:00,68.0,58.0,30.20,NNE,19,1.0,6.0,70,0.00,,,0.00,,2013-01-18 20:43:00,
2013-01-18 15:53:00,68.0,59.0,30.21,NE,34,1.0,3.0,72,0.00,,,0.00,,2013-01-18 20:53:00,
2013-01-18 16:03:00,69.0,59.0,30.21,NE,46,1.0,6.0,70,0.00,,,0.00,,2013-01-18 21:03:00,
2013-01-18 16:13:00,69.0,59.0,30.21,NE,46,1.0,6.0,70,0.00,,,0.00,,2013-01-18 21:13:00,
2013-01-18 16:23:00,68.0,58.0,30.21,NE,45,1.0,4.0,70,0.00,,,0.00,,2013-01-18 21:23:00,
2013-01-18 16:33:00,69.0,59.0,30.21,ENE,57,0.0,3.0,71,0.00,,,0.00,,2013-01-18 21:33:00,
2013-01-18 16:43:00,69.0,59.0,30.21,ENE,57,0.0,3.0,71,0.00,,,0.00,,2013-01-18 21:43:00,
2013-01-18 16:53:00,67.0,59.0,30.22,NNE,19,2.0,7.0,75,0.00,,,0.00,,2013-01-18 21:53:00,
2013-01-18 17:03:00,65.0,60.0,30.22,NE,37,1.0,4.0,83,0.00,,,0.00,,2013-01-18 22:03:00,
2013-01-18 17:12:00,65.0,60.0,30.22,NE,37,1.0,4.0,83,0.00,,,0.00,,2013-01-18 22:12:00,
2013-01-18 17:23:00,63.0,60.0,30.23,NNE,30,0.0,3.0,89,0.02,,,0.02,,2013-01-18 22:23:00,
2013-01-18 17:33:00,63.0,60.0,30.23,NE,42,1.0,6.0,91,0.02,,,0.02,,2013-01-18 22:33:00,
2013-01-18 17:43:00,63.0,60.0,30.23,NE,42,1.0,6.0,91,0.02,,,0.02,,2013-01-18 22:43:00,
2013-01-18 17:53:00,62.0,59.0,30.24,North,4,0.0,3.0,90,0.02,,,0.02,,2013-01-18 22:53:00,
2013-01-18 18:03:00,62.0,59.0,30.25,ENE,60,0.0,4.0,90,0.03,,,0.03,,2013-01-18 23:03:00,
2013-01-18 18:12:00,62.0,59.0,30.25,ENE,60,0.0,4.0,90,0.03,,,0.03,,2013-01-18 23:12:00,
2013-01-18 18:23:00,61.0,59.0,30.24,NNE,31,0.0,2.0,93,0.01,,,0.03,,2013-01-18 23:23:00,
2013-01-18 18:33:00,61.0,60.0,30.24,North,8,0.0,3.0,95,0.01,,,0.03,,2013-01-18 23:33:00,
2013-01-18 18:43:00,61.0,60.0,30.24,North,8,0.0,3.0,95,0.01,,,0.03,,2013-01-18 23:43:00,
2013-01-18 18:52:00,61.0,59.0,30.25,NNE,24,1.0,4.0,94,0.01,,,0.03,,2013-01-18 23:52:00,
2013-01-18 19:02:00,62.0,60.0,30.25,ESE,109,0.0,2.0,94,0.01,,,0.04,,2013-01-19 00:02:00,
2013-01-18 19:12:00,62.0,60.0,30.25,ESE,109,0.0,2.0,94,0.01,,,0.04,,2013-01-19 00:12:00,
2013-01-18 19:23:00,61.0,60.0,30.25,NNE,33,0.0,1.0,95,0.13,,,0.16,,2013-01-19 00:23:00,
2013-01-18 19:33:00,61.0,60.0,30.26,NE,53,0.0,3.0,95,0.16,,,0.19,,2013-01-19 00:33:00,
2013-01-18 19:43:00,61.0,60.0,30.26,NE,53,0.0,3.0,95,0.16,,,0.19,,2013-01-19 00:43:00,
2013-01-18 19:53:00,61.0,60.0,30.25,NNE,20,0.0,2.0,96,0.17,,,0.20,,2013-01-19 00:53:00,
2013-01-18 20:02:00,61.0,60.0,30.26,SE,130,0.0,1.0,96,0.16,,,0.20,,2013-01-19 01:02:00,
2013-01-18 20:12:00,61.0,60.0,30.26,SE,130,0.0,1.0,96,0.16,,,0.20,,2013-01-19 01:12:00,
2013-01-18 20:22:00,61.0,60.0,30.26,East,82,0.0,1.0,96,0.06,,,0.23,,2013-01-19 01:22:00,
2013-01-18 20:33:00,61.0,60.0,30.26,East,90,0.0,0.0,96,0.02,,,0.23,,2013-01-19 01:33:00,
2013-01-18 20:42:00,61.0,60.0,30.26,East,90,0.0,0.0,96,0.02,,,0.23,,2013-01-19 01:42:00,
2013-01-18 20:53:00,61.0,60.0,30.26,ENE,64,0.0,2.0,95,0.02,,,0.23,,2013-01-19 01:53:00,
2013-01-18 21:02:00,62.0,60.0,30.26,NE,47,0.0,1.0,94,0.02,,,0.23,,2013-01-19 02:02:00,
2013-01-18 21:12:00,62.0,60.0,30.26,NE,47,0.0,1.0,94,0.02,,,0.23,,2013-01-19 02:12:00,
2013-01-18 21:23:00,63.0,60.0,30.26,ENE,63,0.0,2.0,90,0.00,,,0.23,,2013-01-19 02:23:00,
2013-01-18 21:33:00,63.0,60.0,30.26,ENE,60,0.0,4.0,89,0.00,,,0.23,,2013-01-19 02:33:00,
2013-01-18 21:43:00,63.0,60.0,30.26,ENE,60,0.0,4.0,89,0.00,,,0.23,,2013-01-19 02:43:00,
2013-01-18 21:53:00,64.0,60.0,30.26,East,98,0.0,1.0,87,0.00,,,0.23,,2013-01-19 02:53:00,
2013-01-18 22:03:00,64.0,60.0,30.26,NE,55,1.0,5.0,87,0.00,,,0.23,,2013-01-19 03:03:00,
2013-01-18 22:12:00,64.0,60.0,30.26,NE,55,1.0,5.0,87,0.00,,,0.23,,2013-01-19 03:12:00,
2013-01-18 22:22:00,64.0,60.0,30.26,ENE,64,0.0,3.0,86,0.00,,,0.23,,2013-01-19 03:22:00,
2013-01-18 22:33:00,64.0,60.0,30.26,NE,40,0.0,4.0,87,0.00,,,0.23,,2013-01-19 03:33:00,
2013-01-18 22:43:00,64.0,60.0,30.26,NE,40,0.0,4.0,87,0.00,,,0.23,,2013-01-19 03:43:00,
2013-01-18 22:53:00,64.0,60.0,30.26,NE,52,0.0,3.0,87,0.00,,,0.23,,2013-01-19 03:53:00,
2013-01-18 23:02:00,63.0,60.0,30.25,ENE,62,0.0,2.0,89,0.00,,,0.23,,2013-01-19 04:02:00,
2013-01-18 23:12:00,63.0,60.0,30.25,ENE,62,0.0,2.0,89,0.00,,,0.23,,2013-01-19 04:12:00,
2013-01-18 23:22:00,64.0,60.0,30.25,NNE,28,0.0,2.0,86,0.00,,,0.23,,2013-01-19 04:22:00,
2013-01-18 23:33:00,64.0,59.0,30.24,ENE,59,0.0,2.0,85,0.00,,,0.23,,2013-01-19 04:33:00,
2013-01-18 23:42:00,64.0,59.0,30.24,ENE,59,0.0,2.0,85,0.00,,,0.23,,2013-01-19 04:42:00,
2013-01-18 23:52:00,65.0,60.0,30.25,ENE,67,1.0,5.0,84,0.00,,,0.23,,2013-01-19 04:52:00,